GPS BIIF-3 (38833 NORAD) Tracking and Keplerian Element Data

This shows tracking and keplerian element data for the satellite.

Feedback or suggestion? Click here.




ElementValue
Catalog38833
NameGPS BIIF-3
Epoch Orbit4231
Epoch Day197.06849426
Epoch Year2018
RAAN262.3124
Inclination53.9276
Eccentricity0.0068902
Argument of Perigee29.1717
Mean Anonmoly331.2919
Mean Motion2.0056723
Decay Rate-4E-08
L11 38833U 12053A 18197.06849426 -.00000004 00000-0 00000+0 0 9995
L22 38833 53.9276 262.3124 0068902 29.1717 331.2919 2.00567230 42314

Live tracking and technical data element details for GPS BIIF-3 (NORAD 38833). GPS BIIF-3 can be tracked NOW for your location showing map with azimuth and elevation plus other details from your city location.

Track the satellite on the map from your city or location and see movement details for azimuth, elevation, latitude, longitude, range, height, and movement on the map or in text.







IsCatalogInMostPopularTable: catalog: 38833, numindb: 53
Update: records affected: 1



GetName: 38833 GPS BIIF-3

Hit Count: updated at: Wed, 18 Jul 2018 20:25:52 GMT